HXMT (HUIYAN)

Last updated on Mon Sep 21 2026 00:02:09 GMT+0000 (Coordinated Universal Time)

1 42758U 17034A 26263.62300884 .00003301 00000+0 16375-3 0 9992 2 42758 43.0152 11.3390 0030788 29.0129 331.2423 15.19170930512179
UTC large
Height (km)
Speed (km/s)
/
Latitude / Longitude
Inclination (degrees)
Orbital Period (minutes)
Azimuth
Elevation
Range (km)
Doppler Factor

Next 0 passes for location: London (51.5072 / 0.1276)

No passes found over London.
HXMT (HUIYAN)